CAPE
0 0 0 3 6 4 162 100 6 5 192 77 114 123 181 261 116 335 273 299 316 208 238 727 1061 617 544 1170 1168 1282 1096 1318 1219 1289 1320 1178 762 160 23 38 70 205 277 394 474 568 645 708 831 944 1276 1412 1486 1727 1786 1972 2023 1948 1808 1807 1892 2037 2312
0 0 0 4 0 175 74 83 46 0 0 8 34 100 154 159 72 328 271 381 345 92 798 920 1015 768 877 1015 1000 1249 1145 1417 1264 1362 1404 1336 1005 509 77 73 185 270 323 431 471 477 502 622 673 850 1350 1276 1553 1706 1646 1824 1962 1924 1795 1707 1592 1717 1988
0 0 0 0 0 0 34 5 58 3 68 0 4 225 99 71 48 211 254 242 318 320 452 756 973 861 875 1041 962 980 1020 1228 1259 1304 1637 1658 1586 1334 413 52 92 117 246 397 493 516 622 772 782 885 1140 1097 1325 1481 1481 1487 1657 1678 1659 1524 1537 1622 1729
0 0 0 0 0 0 0 86 20 2 6 136 52 99 245 98 145 148 364 189 432 412 400 731 970 1041 1046 998 1011 878 948 1123 1297 1278 1520 1623 1744 1844 1151 619 285 181 163 224 425 460 718 771 780 790 772 978 1079 1321 1571 1518 1555 1618 1635 1591 1664 1669 1516
0 0 0 0 0 0 0 60 56 0 0 0 0 0 104 46 314 139 298 191 290 452 252 914 982 1117 1166 1059 962 875 1025 1108 1365 1424 1545 1822 1893 1906 1852 1221 692 452 498 303 244 497 696 890 784 607 602 1060 1065 1175 1371 1576 1569 1501 1532 1527 1684 1704 1531
0 0 0 0 0 0 1 13 47 0 0 0 5 22 2 95 67 104 76 42 476 204 257 558 905 1029 1152 1115 1084 1060 1192 943 1296 1256 1321 1222 1443 1863 1945 1657 1152 1038 1220 859 713 590 543 717 779 601 534 775 1192 1315 1490 1693 1575 1572 1567 1565 1766 1928 1924
0 0 0 0 0 0 0 6 61 0 0 28 21 4 4 134 134 93 202 157 663 139 332 482 686 866 944 1164 989 998 1057 1139 926 1007 1111 1200 1014 1603 1696 1674 1551 1500 1512 1349 1204 891 731 765 884 985 1082 1129 1367 1631 1698 1812 1798 1851 1996 1945 1574 1999 2011
0 0 0 0 0 0 0 0 0 0 0 0 5 22 272 271 308 184 194 83 470 208 602 580 768 938 891 952 935 1042 1051 1158 1200 1176 1126 1252 1110 1395 2143 2255 2075 1976 1636 1797 1763 1614 1497 1469 1367 1286 1310 1527 1738 1892 1865 1975 1787 1997 2041 2070 2080 2224 2047
0 0 0 0 0 0 0 0 0 0 0 0 32 230 382 288 413 370 120 74 462 337 505 593 666 711 843 764 844 874 852 1012 829 1000 1289 1509 1715 1606 1707 1649 1605 1611 1564 1704 1921 1951 2021 1814 1847 1825 1740 1756 1869 1949 2041 2058 2071 2174 1955 2198 2120 1986 2057
0 0 0 0 0 0 0 0 0 0 0 43 60 158 304 82 511 246 172 304 477 500 462 636 742 734 687 597 636 627 655 649 719 768 1113 1283 1481 1564 1472 1462 1471 1607 1556 1674 1737 1743 1866 1964 2044 2183 2056 1901 2001 2292 2063 2236 2422 2559 2372 2713 2577 2611 2570
0 0 0 0 0 0 0 0 0 0 30 62 298 763 340 15 478 319 402 723 667 335 529 660 745 786 630 558 598 619 590 551 573 591 715 872 1071 1242 1335 1279 1356 1351 1462 1514 1480 1429 1563 1813 1809 1831 2014 2295 2271 2251 2374 2438 2626 2601 3078 2808 2653 2518 2534
0 11 9 10 0 0 0 0 0 0 36 108 116 42 102 875 407 434 749 564 690 596 525 632 728 719 662 565 557 629 674 638 643 650 653 859 1043 1010 1044 1007 1051 1265 1258 1444 1448 1494 1547 1546 1515 1408 1403 1429 1482 1664 1738 1619 1834 1940 1621 2158 1871 2280 2095
5 6 18 18 12 5 3 5 4 8 9 78 99 324 162 464 55 0 864 786 935 822 562 656 701 687 715 665 674 693 639 613 651 762 768 866 1032 1122 1118 996 1005 1136 1084 1189 1206 1345 1337 1131 1182 1432 1259 1216 1364 1372 1378 1403 1536 1402 1249 1568 1317 1137 1487
20 20 18 25 24 19 8 4 4 54 39 44 227 268 150 334 635 213 780 997 1106 858 645 670 740 740 785 744 737 705 726 753 793 872 860 886 870 975 981 907 866 892 946 1011 1026 982 902 927 990 1080 1091 1070 896 755 738 762 849 943 1108 1204 1186 1029 943
31 34 28 26 23 21 18 14 6 37 191 385 504 471 508 601 725 678 899 1052 1014 845 722 730 653 843 742 652 683 615 647 720 754 781 784 797 801 835 946 989 925 912 958 877 886 954 953 936 856 905 920 1012 1121 1089 999 1015 1067 961 1083 1210 1039 972 979
33 47 42 30 24 18 15 16 11 10 85 555 536 692 519 686 888 912 922 933 991 808 608 584 869 886 900 867 805 730 601 479 604 770 836 839 865 930 855 788 868 906 918 960 960 942 899 864 856 841 802 844 850 913 944 943 911 831 822 902 834 883 1031
35 40 57 47 32 25 21 23 22 24 230 412 276 336 456 632 929 885 839 1012 1093 884 631 720 881 858 910 891 779 728 627 525 450 736 840 738 881 785 626 524 591 715 823 857 860 885 913 871 847 786 805 836 796 731 690 622 600 622 576 638 637 624 773
46 45 52 51 38 21 31 24 193 36 22 235 303 403 554 682 684 748 685 862 819 718 583 699 726 775 839 772 656 565 517 463 421 598 883 750 709 595 558 559 674 778 750 756 737 718 823 829 718 681 736 766 803 765 681 596 525 527 714 647 776 757 748
49 44 40 37 48 51 47 22 101 249 61 154 301 452 551 502 390 424 540 809 838 706 706 735 693 781 682 553 544 452 415 398 436 561 606 750 721 606 568 590 656 615 522 383 9 560 435 598 624 567 664 526 546 491 454 480 500 511 374 328 578 612 576
26 37 23 27 45 35 32 32 24 44 167 154 300 459 398 520 441 588 827 910 796 710 651 610 762 661 576 503 481 474 413 592 575 658 794 860 860 781 614 588 550 500 370 0 66 26 273 349 152 318 508 366 338 252 223 56 391 409 438 456 411 529 498
46 34 22 14 26 41 19 11 6 5 7 255 204 355 598 481 498 704 930 823 681 640 729 773 650 611 586 499 484 416 551 630 597 626 644 810 846 769 580 424 383 470 368 242 268 122 0 0 14 258 288 306 350 334 357 179 365 318 299 326 356 360 376
85 111 15 8 5 19 29 26 6 1 0 0 34 21 608 189 345 749 964 888 698 752 752 688 660 622 603 532 490 518 604 671 672 684 628 610 625 530 495 312 238 285 339 248 164 153 153 110 149 241 240 209 158 174 256 106 201 243 248 230 266 300 332
1 22 1 0 0 6 2 3 3 5 0 0 242 138 496 296 504 902 1010 851 793 855 794 742 670 676 588 568 535 475 491 519 554 574 567 486 373 487 440 368 278 255 234 198 152 129 158 86 0 107 236 246 236 237 225 230 237 188 193 194 208 235 249
70 69 45 1 108 12 0 0 0 1 0 0 226 181 241 261 440 931 1045 1004 939 929 877 776 707 638 624 565 542 467 460 433 339 241 193 207 181 125 10 129 65 0 42 163 20 4 6 0 0 0 182 190 108 177 212 211 192 174 147 151 153 153 190
21 8 9 0 2 58 0 0 0 0 23 142 406 54 171 36 377 728 1070 1094 962 932 879 805 723 642 606 506 390 357 369 358 202 153 56 0 0 5 0 122 61 99 55 87 0 0 11 0 35 37 60 132 164 118 170 171 153 140 116 12 0 0 0
0 0 0 0 6 0 0 0 0 7 6 69 58 14 0 0 232 676 955 1067 957 956 923 816 696 592 389 404 370 330 257 228 139 44 0 0 0 0 0 0 22 46 0 0 0 0 0 0 0 0 0 56 79 97 103 92 82 55 0 0 0 0 0
0 0 0 0 0 55 0 0 16 0 122 4 0 0 0 10 300 558 824 934 1034 1008 963 846 617 331 177 204 199 74 173 146 62 0 0 0 0 0 0 0 0 0 0 0 0 0 0 0 0 0 0 0 0 0 0 0 0 0 0 0 0 0 0
0 0 0 0 4 0 0 0 43 0 0 0 0 0 0 61 266 494 719 935 1032 1041 984 798 661 328 285 281 158 151 83 126 105 76 0 0 0 0 0 0 0 0 0 0 0 0 0 0 0 0 0 0 0 0 0 0 0 0 0 0 0 0 0
8 7 56 35 0 0 0 0 0 0 0 0 0 0 0 66 368 431 572 820 956 1024 1009 943 698 328 325 303 259 317 177 28 59 112 81 60 9 0 0 0 0 0 0 0 0 0 0 0 0 0 0 0 0 0 0 0 0 0 0 0 0 0 0
0 0 0 0 2 0 3 0 0 0 0 0 0 0 0 10 179 390 510 670 875 1013 1023 937 631 454 364 281 315 303 168 30 40 152 10 0 0 0 0 0 0 0 0 0 0 0 0 0 0 0 0 0 0 0 0 0 0 0 0 0 0 0 0
47 97 59 50 5 0 1 8 0 0 0 0 0 0 0 0 149 381 460 544 713 894 923 697 170 36 278 0 116 279 131 0 117 118 2 0 0 0 0 0 0 0 0 0 0 0 0 0 0 0 0 0 0 0 0 0 0 0 0 0 0 0 0
0 157 79 0 0 0 0 0 2 0 0 0 0 0 0 0 0 345 458 525 618 732 777 700 648 548 174 258 381 149 0 0 0 38 0 0 0 0 0 0 0 0 0 0 0 0 0 0 0 0 0 0 0 0 0 0 0 0 0 0 0 0 0
6 0 0 24 0 23 8 3 0 0 1 3 0 0 0 0 0 374 468 496 570 600 639 612 567 463 364 234 12 10 8 0 6 6 1 0 0 0 0 0 0 0 0 0 0 0 0 0 0 0 0 0 0 0 0 0 0 0 1 3 0 0 0
105 237 154 191 288 331 58 10 1 10 23 1 0 0 0 0 0 0 430 510 517 481 440 358 235 0 46 9 0 1 21 0 0 0 2 0 3 0 0 0 0 0 0 0 0 0 0 0 0 0 0 0 0 0 0 3 3 1 1 3 3 0 0
225 200 75 24 60 53 10 4 8 8 50 45 0 0 0 0 0 0 0 291 368 384 344 256 196 15 0 0 0 29 10 0 0 0 0 0 0 8 9 0 0 0 0 0 0 0 0 0 0 0 0 0 0 0 2 4 6 6 5 3 2 1 1
104 46 64 9 153 125 22 4 3 70 31 20 65 30 10 0 0 0 0 0 0 0 91 96 66 54 0 0 0 3 4 0 0 0 0 0 0 0 0 0 2 0 0 0 0 0 0 0 0 0 0 0 0 0 0 0 2 5 6 7 4 2 1
372 138 128 58 101 46 15 5 8 4 33 17 6 13 16 112 14 0 0 0 0 0 0 0 0 0 0 0 0 0 0 0 42 80 0 0 0 0 0 0 0 0 0 0 0 0 0 0 0 0 0 0 0 0 0 0 0 0 3 4 4 4 5
Wind_Speed
nan nan nan nan nan nan 31 33 nan nan 36 nan 34 33 34 32 28 25 26 22 20 20 17 18 17 12 7 10 13 14 21 29 24 21 21 20 18 16 nan nan nan 13 14 14 14 12 12 12 10 9 9 9 8 10 10 10 10 11 9 8 8 9 9
nan nan nan nan nan 35 nan nan nan nan nan nan nan nan 32 30 nan 28 24 19 21 nan 21 19 16 12 8 10 12 10 12 22 22 22 23 21 19 18 nan nan 16 16 15 14 14 14 12 10 8 8 9 9 11 11 10 10 11 10 9 9 8 9 10
nan nan nan nan nan nan nan nan nan nan nan nan nan 31 nan nan nan 28 25 21 20 19 20 18 13 12 9 9 11 11 9 12 16 21 24 24 24 24 22 nan nan 19 18 16 16 15 14 13 12 11 11 11 11 11 11 9 8 8 8 9 10 11 10
nan nan nan nan nan nan nan nan nan nan nan 31 nan nan 30 nan 28 27 26 23 19 15 19 16 14 11 10 10 11 11 12 13 16 21 25 26 26 26 26 26 25 24 22 19 17 15 16 15 14 14 11 12 10 11 12 12 13 13 12 11 12 11 10
nan nan nan nan nan nan nan nan nan nan nan nan nan nan 31 nan 29 26 26 22 17 19 22 19 16 13 11 10 11 12 12 14 18 24 29 31 31 30 29 28 26 25 25 23 20 19 18 19 18 16 13 12 12 12 13 13 13 12 12 12 13 13 13
nan nan nan nan nan nan nan nan nan nan nan nan nan nan nan nan nan 29 nan nan 22 22 20 22 18 15 11 10 12 13 13 14 19 24 32 37 38 34 29 27 26 25 24 23 22 22 21 20 17 14 14 14 14 14 16 16 15 14 14 14 14 16 16
nan nan nan nan nan nan nan nan nan nan nan nan nan nan nan 31 33 nan 31 27 23 23 20 19 17 17 14 14 15 13 14 17 17 21 31 38 40 35 30 28 27 27 26 25 24 22 21 19 16 15 16 16 16 16 17 17 16 14 15 15 16 17 18
nan nan nan nan nan nan nan nan nan nan nan nan nan nan 31 27 31 26 27 nan 26 22 21 17 18 19 20 18 15 15 17 19 19 19 20 28 35 34 31 32 32 29 28 27 26 25 23 21 18 16 17 18 18 19 18 18 16 16 17 17 18 19 18
nan nan nan nan nan nan nan nan nan nan nan nan nan 40 35 27 29 30 25 nan 26 23 21 19 18 19 19 19 18 18 20 20 18 17 15 19 27 33 36 35 32 30 29 28 27 26 23 21 20 18 18 18 19 19 20 20 20 19 19 20 19 19 19
nan nan nan nan nan nan nan nan nan nan nan nan nan 35 35 nan 34 32 28 28 31 28 21 18 15 16 18 20 21 20 23 23 19 18 17 15 19 26 32 36 36 31 29 29 28 25 23 22 21 20 19 19 21 23 23 23 22 23 23 23 23 23 22
nan nan nan nan nan nan nan nan nan nan nan nan 40 41 35 nan 34 28 31 31 28 24 20 18 15 15 18 20 21 22 24 23 21 20 20 19 20 19 21 27 34 35 30 29 28 26 26 28 29 29 28 27 27 25 24 26 27 26 27 26 23 23 23
nan nan nan nan nan nan nan nan nan nan nan 35 34 nan 33 42 37 28 32 28 26 21 21 19 17 17 19 19 21 23 24 24 22 21 21 22 22 22 22 23 24 26 27 31 32 30 29 30 30 29 28 27 25 25 26 26 28 29 26 26 25 25 22
nan nan nan nan nan nan nan nan nan nan nan nan nan 37 40 35 nan nan 29 26 22 24 22 22 21 22 21 21 21 22 23 24 24 23 21 21 23 25 26 22 21 21 23 26 32 33 33 34 34 33 32 31 31 32 33 33 34 32 27 25 26 26 26
nan nan nan nan nan nan nan nan nan nan nan nan 36 38 36 39 39 35 29 25 24 27 25 25 26 26 26 25 25 25 24 22 22 21 21 22 23 24 25 24 25 23 21 21 28 33 36 37 36 35 35 35 35 35 36 36 35 32 27 24 27 31 31
nan nan nan nan nan nan nan nan nan nan 39 37 38 36 36 38 41 37 35 31 29 28 27 27 29 28 28 27 25 26 28 26 23 22 21 22 24 25 25 25 25 26 28 29 30 33 34 37 39 40 40 40 39 39 38 37 34 30 26 26 30 30 26
nan nan nan nan nan nan nan nan nan nan nan 36 36 35 36 33 36 37 38 32 27 28 26 27 28 27 27 26 24 26 28 29 28 26 26 27 26 26 26 27 27 27 29 33 36 37 37 39 41 42 44 45 45 43 40 39 37 32 28 29 31 32 29
nan nan nan nan nan nan nan nan nan nan 33 33 34 36 37 35 39 38 32 31 34 31 28 27 26 24 25 25 24 24 26 28 29 29 29 31 31 30 29 29 30 31 31 32 35 38 38 39 40 42 45 49 48 42 40 39 40 39 36 34 34 33 31
nan nan nan nan nan nan nan nan 38 nan nan 38 36 37 36 39 36 37 38 37 38 33 29 26 27 26 26 25 25 25 27 29 29 28 30 33 34 34 34 33 33 34 35 35 35 36 37 36 38 38 40 44 45 42 41 41 41 40 38 34 32 31 31
nan nan nan nan nan nan nan nan 40 39 nan 34 34 36 36 36 35 33 32 35 36 33 31 31 31 31 30 29 30 31 32 31 30 29 31 32 32 34 34 33 33 35 36 37 nan 39 39 37 38 40 41 42 43 41 39 40 39 39 35 33 30 31 32
nan nan nan nan nan nan nan nan nan nan 33 39 32 33 32 32 32 30 32 32 34 35 36 35 35 35 38 41 39 35 33 32 30 31 30 31 31 31 32 34 35 38 38 nan nan nan 35 36 37 40 41 39 41 40 37 nan 35 37 36 34 31 31 33
nan nan nan nan nan nan nan nan nan nan nan 39 37 34 32 32 31 29 33 32 33 34 34 35 37 38 41 42 40 38 37 36 33 34 34 33 33 34 34 36 38 37 37 38 39 40 nan nan nan 33 34 36 38 39 38 34 35 36 36 35 34 33 32
nan 33 nan nan nan nan nan nan nan nan nan nan nan nan 31 33 30 28 33 32 33 32 33 34 34 36 37 37 36 36 37 38 40 40 40 38 37 37 38 38 39 38 37 39 42 42 42 41 38 35 36 37 38 39 38 37 38 36 36 36 34 33 32
nan nan nan nan nan nan nan nan nan nan nan nan 37 32 34 37 33 29 31 32 30 31 32 32 32 30 30 31 32 33 36 37 39 42 42 42 41 40 40 40 41 41 40 42 44 45 45 nan nan 44 42 41 41 40 39 39 38 37 36 36 35 35 35
nan nan nan nan 31 nan nan nan nan nan nan nan 38 34 37 38 33 28 28 29 29 30 30 31 27 26 27 27 27 32 35 37 39 40 42 43 43 42 nan 44 nan nan nan 46 nan nan nan nan nan nan 43 42 40 38 37 37 39 38 37 36 35 35 35
nan nan nan nan nan nan nan nan nan nan nan 33 36 nan 39 nan 33 28 26 27 29 31 31 28 27 29 32 33 34 35 36 37 39 40 nan nan nan nan nan 43 nan nan nan nan nan nan nan nan nan nan nan 41 39 38 39 40 41 39 37 nan nan nan nan
nan nan nan nan nan nan nan nan nan nan nan nan nan nan nan nan 33 30 28 29 30 31 31 31 35 38 40 39 37 35 36 38 40 nan nan nan nan nan nan nan nan nan nan nan nan nan nan nan nan nan nan nan nan nan 40 nan nan nan nan nan nan nan nan
nan nan nan nan nan nan nan nan nan nan 36 nan nan nan nan nan 37 35 32 31 31 33 38 41 42 42 41 41 38 nan 38 39 nan nan nan nan nan nan nan nan nan nan nan nan nan nan nan nan nan nan nan nan nan nan nan nan nan nan nan nan nan nan nan
nan nan nan nan nan nan nan nan nan nan nan nan nan nan nan nan 41 38 36 37 35 35 37 37 39 38 37 36 38 38 nan 39 42 nan nan nan nan nan nan nan nan nan nan nan nan nan nan nan nan nan nan nan nan nan nan nan nan nan nan nan nan nan nan
nan nan nan nan nan nan nan nan nan nan nan nan nan nan nan nan 40 40 37 37 36 35 36 36 39 37 34 35 35 38 39 nan nan 42 nan nan nan nan nan nan nan nan nan nan nan nan nan nan nan nan nan nan nan nan nan nan nan nan nan nan nan nan nan
nan nan nan nan nan nan nan nan nan nan nan nan nan nan nan nan 42 40 37 36 35 36 35 37 38 38 37 39 38 39 40 nan nan 39 nan nan nan nan nan nan nan nan nan nan nan nan nan nan nan nan nan nan nan nan nan nan nan nan nan nan nan nan nan
nan nan nan nan nan nan nan nan nan nan nan nan nan nan nan nan 41 44 45 41 39 39 44 41 38 nan 38 nan 40 43 43 nan 43 44 nan nan nan nan nan nan nan nan nan nan nan nan nan nan nan nan nan nan nan nan nan nan nan nan nan nan nan nan nan
nan 22 nan nan nan nan nan nan nan nan nan nan nan nan nan nan nan 46 49 49 48 47 50 50 46 45 45 45 45 45 nan nan nan nan nan nan nan nan nan nan nan nan nan nan nan nan nan nan nan nan nan nan nan nan nan nan nan nan nan nan nan nan nan
nan nan nan nan nan nan nan nan nan nan nan nan nan nan nan nan nan 43 49 51 50 50 50 50 52 53 47 46 nan nan nan nan nan nan nan nan nan nan nan nan nan nan nan nan nan nan nan nan nan nan nan nan nan nan nan nan nan nan nan nan nan nan nan
21 22 22 21 19 23 nan nan nan nan nan nan nan nan nan nan nan nan 41 45 47 47 47 45 46 nan nan nan nan nan nan nan nan nan nan nan nan nan nan nan nan nan nan nan nan nan nan nan nan nan nan nan nan nan nan nan nan nan nan nan nan nan nan
24 25 nan nan nan nan nan nan nan nan nan nan nan nan nan nan nan nan nan 40 41 44 47 49 50 nan nan nan nan nan nan nan nan nan nan nan nan nan nan nan nan nan nan nan nan nan nan nan nan nan nan nan nan nan nan nan nan nan nan nan nan nan nan
27 nan nan nan 27 30 nan nan nan nan nan nan nan nan nan nan nan nan nan nan nan nan nan nan nan nan nan nan nan nan nan nan nan nan nan nan nan nan nan nan nan nan nan nan nan nan nan nan nan nan nan nan nan nan nan nan nan nan nan nan nan nan nan
26 26 26 nan 29 nan nan nan nan nan nan nan nan nan nan 36 nan nan nan nan nan nan nan nan nan nan nan nan nan nan nan nan nan nan nan nan nan nan nan nan nan nan nan nan nan nan nan nan nan nan nan nan nan nan nan nan nan nan nan nan nan nan nan
Wind_Direction
nan nan nan nan nan nan 222 216 nan nan 221 nan 227 227 226 232 230 231 227 214 220 216 219 218 218 226 241 273 292 279 232 216 217 217 213 208 203 205 nan nan nan 212 210 202 198 202 206 210 211 206 203 201 201 206 207 206 205 212 219 216 206 204 204
nan nan nan nan nan 222 nan nan nan nan nan nan nan nan 229 227 nan 233 231 220 219 nan 221 224 236 244 270 287 302 284 237 218 224 225 224 219 207 201 nan nan 209 214 213 209 202 199 203 209 213 212 211 207 204 205 211 215 213 215 216 213 208 205 202
nan nan nan nan nan nan nan nan nan nan nan nan nan 226 nan nan nan 230 229 219 215 226 222 232 244 251 276 291 294 292 267 245 243 236 232 228 218 208 205 nan nan 209 209 207 204 202 201 203 206 206 213 215 210 207 209 212 213 218 228 222 218 213 209
nan nan nan nan nan nan nan nan nan nan nan 226 nan nan 228 nan 234 230 232 225 222 239 226 247 248 261 280 290 292 294 284 260 250 241 235 234 226 214 208 209 208 207 207 206 206 204 203 204 204 207 213 214 214 213 216 212 211 213 219 224 226 224 218
nan nan nan nan nan nan nan nan nan nan nan nan nan nan 227 nan 238 233 229 224 224 231 225 233 252 261 277 288 285 280 273 256 244 235 231 231 230 222 214 212 212 212 210 208 210 210 208 208 203 200 205 214 215 216 219 221 222 221 220 219 221 221 221
nan nan nan nan nan nan nan nan nan nan nan nan nan nan nan nan nan 234 nan nan 225 231 232 225 235 246 257 269 280 273 263 255 244 235 228 224 220 218 217 214 214 216 217 214 213 215 215 217 212 203 202 212 218 218 220 222 219 218 221 222 223 223 221
nan nan nan nan nan nan nan nan nan nan nan nan nan nan nan 234 234 nan 228 222 224 225 230 232 238 244 244 252 260 270 266 254 243 236 236 225 216 209 209 213 214 214 215 215 216 219 221 222 219 215 213 214 219 222 224 223 223 223 225 224 225 228 228
nan nan nan nan nan nan nan nan nan nan nan nan nan nan 239 238 241 238 236 nan 224 229 231 238 245 245 242 245 252 260 265 263 248 238 242 233 219 208 207 210 213 215 217 217 218 221 223 221 220 220 216 215 218 220 220 221 221 222 224 225 227 230 230
nan nan nan nan nan nan nan nan nan nan nan nan nan 232 229 231 237 226 236 nan 225 229 231 239 253 256 255 252 247 250 254 257 259 254 250 235 218 212 214 217 216 215 217 219 218 220 223 224 222 222 221 218 218 217 216 217 217 219 220 223 225 227 228
nan nan nan nan nan nan nan nan nan nan nan nan nan 235 234 nan 233 230 228 227 224 231 233 247 255 262 260 253 249 247 247 249 256 254 249 240 224 224 228 225 220 219 219 221 222 221 220 223 225 226 225 222 221 221 217 213 216 216 216 222 225 228 227
nan nan nan nan nan nan nan nan nan nan nan nan 220 229 236 nan 238 236 233 228 239 236 240 250 256 262 266 262 257 254 251 249 246 247 247 243 236 239 240 227 218 219 224 226 225 221 220 222 221 219 220 220 222 225 222 220 219 219 221 224 226 229 229
nan nan nan nan nan nan nan nan nan nan nan 220 228 nan 232 239 240 231 236 239 244 241 247 247 254 260 262 265 264 259 256 256 254 253 252 250 249 249 242 229 228 233 236 232 227 224 225 227 228 227 225 224 224 226 225 223 223 223 223 228 233 235 236
nan nan nan nan nan nan nan nan nan nan nan nan nan 228 234 247 nan nan 246 251 241 242 251 251 250 253 258 265 269 264 260 259 259 261 260 257 257 254 248 238 235 245 251 239 229 226 229 233 234 233 232 229 224 223 224 225 226 228 230 230 233 236 238
nan nan nan nan nan nan nan nan nan nan nan nan 221 229 233 233 232 228 247 255 240 240 251 253 250 249 254 259 262 264 262 261 261 263 264 263 262 261 260 252 241 241 250 248 235 229 229 235 236 235 233 230 228 227 228 231 234 234 233 230 231 234 238
nan nan nan nan nan nan nan nan nan nan 221 228 227 233 236 237 235 239 250 250 240 237 247 255 250 250 254 259 264 266 266 266 263 262 263 263 263 264 266 263 253 245 243 241 238 236 235 236 237 237 233 230 229 228 229 233 236 235 235 234 236 243 246
nan nan nan nan nan nan nan nan nan nan nan 230 233 235 235 235 245 251 252 247 243 249 257 259 253 258 258 263 265 264 265 269 269 268 263 261 264 267 270 269 264 258 251 243 239 241 241 240 239 239 236 231 228 227 230 236 237 238 238 240 241 245 247
nan nan nan nan nan nan nan nan nan nan 216 227 230 233 240 239 257 257 254 242 238 256 262 266 262 262 260 262 264 264 263 265 269 268 264 262 264 268 269 270 269 265 261 255 248 243 241 239 239 238 236 231 226 224 228 232 236 237 242 242 239 241 244
nan nan nan nan nan nan nan nan 215 nan nan 223 224 235 237 249 243 240 237 240 251 260 262 267 263 261 258 256 256 254 257 260 264 266 264 260 262 265 265 263 265 263 260 256 248 242 238 237 239 239 235 232 228 227 227 228 230 235 239 239 237 236 237
nan nan nan nan nan nan nan nan 223 225 nan 228 229 237 243 243 239 241 245 252 258 259 260 260 255 253 253 251 252 249 249 252 255 260 259 257 262 262 260 259 258 257 257 258 nan 251 246 239 235 237 236 234 232 229 229 234 235 236 234 234 231 231 229
nan nan nan nan nan nan nan nan nan nan 231 226 230 238 238 236 235 241 248 256 260 262 260 258 257 255 252 247 243 247 248 248 254 257 257 261 259 258 257 257 257 258 255 nan nan nan 245 245 240 235 235 232 231 227 226 nan 232 235 235 235 235 237 236
nan nan nan nan nan nan nan nan nan nan nan 221 224 227 236 236 237 244 254 260 266 269 267 264 259 258 254 250 244 241 244 242 243 251 256 258 259 261 259 258 256 253 254 253 252 250 nan nan nan 230 227 230 232 231 231 231 237 239 240 240 239 240 241
nan 241 nan nan nan nan nan nan nan nan nan nan nan nan 231 238 238 247 262 269 273 274 271 270 270 266 257 249 247 245 248 247 246 245 250 252 253 252 252 254 256 255 251 250 248 249 248 242 240 240 239 237 238 239 240 240 241 241 241 241 239 238 239
nan nan nan nan nan nan nan nan nan nan nan nan 231 227 230 232 232 250 263 267 273 274 277 277 276 269 262 255 253 252 254 253 251 249 247 249 250 250 250 252 256 256 252 249 248 248 247 nan nan 243 245 244 243 243 241 241 241 242 242 240 238 237 236
nan nan nan nan 234 nan nan nan nan nan nan nan 233 223 227 227 227 243 256 266 271 270 273 276 273 268 266 269 265 259 256 252 248 249 250 249 248 248 nan 249 nan nan nan 250 nan nan nan nan nan nan 242 244 244 243 241 242 242 243 243 243 241 241 240
nan nan nan nan nan nan nan nan nan nan nan 241 231 nan 217 nan 219 234 247 260 264 265 270 269 269 243 244 257 261 259 256 253 251 249 nan nan nan nan nan 249 nan nan nan nan nan nan nan nan nan nan nan 240 239 239 240 242 243 243 244 nan nan nan nan
nan nan nan nan nan nan nan nan nan nan nan nan nan nan nan nan 217 228 242 254 255 254 257 249 243 243 249 251 251 255 257 255 251 nan nan nan nan nan nan nan nan nan nan nan nan nan nan nan nan nan nan nan nan nan 242 nan nan nan nan nan nan nan nan
nan nan nan nan nan nan nan nan nan nan 241 nan nan nan nan nan 225 228 238 245 250 251 247 245 245 243 248 253 253 nan 251 254 nan nan nan nan nan nan nan nan nan nan nan nan nan nan nan nan nan nan nan nan nan nan nan nan nan nan nan nan nan nan nan
nan nan nan nan nan nan nan nan nan nan nan nan nan nan nan nan 230 228 235 233 238 245 249 252 253 257 256 250 252 254 nan 256 255 nan nan nan nan nan nan nan nan nan nan nan nan nan nan nan nan nan nan nan nan nan nan nan nan nan nan nan nan nan nan
nan nan nan nan nan nan nan nan nan nan nan nan nan nan nan nan 229 228 230 236 234 241 247 250 257 258 261 264 263 258 252 nan nan 255 nan nan nan nan nan nan nan nan nan nan nan nan nan nan nan nan nan nan nan nan nan nan nan nan nan nan nan nan nan
nan nan nan nan nan nan nan nan nan nan nan nan nan nan nan nan 229 227 228 235 238 239 240 246 249 256 262 265 268 268 268 nan nan 263 nan nan nan nan nan nan nan nan nan nan nan nan nan nan nan nan nan nan nan nan nan nan nan nan nan nan nan nan nan
nan nan nan nan nan nan nan nan nan nan nan nan nan nan nan nan 228 232 231 232 236 237 234 239 238 nan 241 nan 259 264 265 nan 265 266 nan nan nan nan nan nan nan nan nan nan nan nan nan nan nan nan nan nan nan nan nan nan nan nan nan nan nan nan nan
nan 245 nan nan nan nan nan nan nan nan nan nan nan nan nan nan nan 232 235 233 234 233 232 229 235 238 239 240 241 250 nan nan nan nan nan nan nan nan nan nan nan nan nan nan nan nan nan nan nan nan nan nan nan nan nan nan nan nan nan nan nan nan nan
nan nan nan nan nan nan nan nan nan nan nan nan nan nan nan nan nan 233 235 236 239 239 237 236 234 233 233 238 nan nan nan nan nan nan nan nan nan nan nan nan nan nan nan nan nan nan nan nan nan nan nan nan nan nan nan nan nan nan nan nan nan nan nan
255 250 250 246 249 249 nan nan nan nan nan nan nan nan nan nan nan nan 237 237 236 236 235 236 244 nan nan nan nan nan nan nan nan nan nan nan nan nan nan nan nan nan nan nan nan nan nan nan nan nan nan nan nan nan nan nan nan nan nan nan nan nan nan
254 250 nan nan nan nan nan nan nan nan nan nan nan nan nan nan nan nan nan 240 239 236 234 231 236 nan nan nan nan nan nan nan nan nan nan nan nan nan nan nan nan nan nan nan nan nan nan nan nan nan nan nan nan nan nan nan nan nan nan nan nan nan nan
255 nan nan nan 250 251 nan nan nan nan nan nan nan nan nan nan nan nan nan nan nan nan nan nan nan nan nan nan nan nan nan nan nan nan nan nan nan nan nan nan nan nan nan nan nan nan nan nan nan nan nan nan nan nan nan nan nan nan nan nan nan nan nan
258 256 258 nan 256 nan nan nan nan nan nan nan nan nan nan 243 nan nan nan nan nan nan nan nan nan nan nan nan nan nan nan nan nan nan nan nan nan nan nan nan nan nan nan nan nan nan nan nan nan nan nan nan nan nan nan nan nan nan nan nan nan nan nan